TimeMDT,TemperatureF,Dew PointF,Humidity,Sea Level PressureIn,VisibilityMPH,Wind Direction,Wind SpeedMPH,Gust SpeedMPH,PrecipitationIn,Events,Conditions,WindDirDegrees,DateUTC
12:15 AM,35.6,23.0,60,30.05,10.0,Calm,Calm,-,N/A,,Clear,0,2012-10-08 06:15:00
12:35 AM,35.6,23.0,60,30.05,10.0,Calm,Calm,-,N/A,,Clear,0,2012-10-08 06:35:00
12:55 AM,33.8,21.2,60,30.05,10.0,Calm,Calm,-,N/A,,Clear,0,2012-10-08 06:55:00
1:15 AM,32.0,21.2,64,30.05,10.0,SE,3.5,-,N/A,,Clear,130,2012-10-08 07:15:00
1:35 AM,32.0,21.2,64,30.05,10.0,Calm,Calm,-,N/A,,Clear,0,2012-10-08 07:35:00
1:55 AM,32.0,19.4,60,30.05,10.0,Calm,Calm,-,N/A,,Clear,0,2012-10-08 07:55:00
2:15 AM,32.0,19.4,60,30.05,10.0,ESE,3.5,-,N/A,,Clear,110,2012-10-08 08:15:00
2:35 AM,32.0,19.4,60,30.05,10.0,Calm,Calm,-,N/A,,Clear,0,2012-10-08 08:35:00
2:55 AM,32.0,19.4,60,30.05,10.0,Calm,Calm,-,N/A,,Clear,0,2012-10-08 08:55:00
3:15 AM,32.0,19.4,60,30.05,10.0,SSE,3.5,-,N/A,,Clear,150,2012-10-08 09:15:00
3:35 AM,32.0,19.4,60,30.05,10.0,Calm,Calm,-,N/A,,Clear,0,2012-10-08 09:35:00
3:55 AM,32.0,19.4,60,30.05,10.0,SE,3.5,-,N/A,,Clear,130,2012-10-08 09:55:00
4:15 AM,32.0,17.6,55,30.04,10.0,Calm,Calm,-,N/A,,Clear,0,2012-10-08 10:15:00
4:35 AM,32.0,15.8,51,30.04,10.0,ESE,3.5,-,N/A,,Clear,120,2012-10-08 10:35:00
4:55 AM,32.0,17.6,55,30.04,10.0,SE,3.5,-,N/A,,Clear,130,2012-10-08 10:55:00
5:15 AM,30.2,15.8,55,30.04,10.0,SE,3.5,-,N/A,,Clear,130,2012-10-08 11:15:00
5:35 AM,32.0,15.8,51,30.05,10.0,SE,3.5,-,N/A,,Clear,130,2012-10-08 11:35:00
5:55 AM,30.2,15.8,55,30.04,10.0,SE,3.5,-,N/A,,Clear,130,2012-10-08 11:55:00
6:15 AM,30.2,14.0,51,30.04,10.0,ESE,4.6,-,N/A,,Clear,120,2012-10-08 12:15:00
6:35 AM,32.0,14.0,48,30.04,9.0,Calm,Calm,-,N/A,,Clear,0,2012-10-08 12:35:00
6:55 AM,32.0,14.0,48,30.04,10.0,ESE,4.6,-,N/A,,Clear,110,2012-10-08 12:55:00
7:15 AM,30.2,14.0,51,30.04,10.0,Calm,Calm,-,N/A,,Clear,0,2012-10-08 13:15:00
7:35 AM,30.2,14.0,51,30.04,10.0,ESE,3.5,-,N/A,,Clear,120,2012-10-08 13:35:00
7:55 AM,28.4,14.0,55,30.05,10.0,SE,3.5,-,N/A,,Clear,130,2012-10-08 13:55:00
8:15 AM,32.0,12.2,44,30.05,10.0,ESE,6.9,-,N/A,,Clear,120,2012-10-08 14:15:00
8:35 AM,32.0,12.2,44,30.06,10.0,ESE,6.9,-,N/A,,Clear,110,2012-10-08 14:35:00
8:55 AM,32.0,14.0,48,30.06,10.0,SE,4.6,-,N/A,,Clear,140,2012-10-08 14:55:00
9:15 AM,33.8,14.0,44,30.06,10.0,SE,4.6,-,N/A,,Clear,140,2012-10-08 15:15:00
9:35 AM,37.4,15.8,41,30.06,10.0,SSE,3.5,-,N/A,,Clear,150,2012-10-08 15:35:00
9:55 AM,39.2,15.8,39,30.06,10.0,South,5.8,-,N/A,,Clear,170,2012-10-08 15:55:00
10:15 AM,44.6,15.8,31,30.07,10.0,South,5.8,-,N/A,,Clear,170,2012-10-08 16:15:00
10:35 AM,46.4,17.6,32,30.07,10.0,South,4.6,-,N/A,,Clear,190,2012-10-08 16:35:00
10:55 AM,48.2,17.6,30,30.06,10.0,SSE,4.6,-,N/A,,Clear,160,2012-10-08 16:55:00
11:15 AM,50.0,19.4,30,30.06,7.0,Calm,Calm,-,N/A,,Clear,0,2012-10-08 17:15:00
11:35 AM,51.8,19.4,28,30.05,10.0,Calm,Calm,-,N/A,,Clear,0,2012-10-08 17:35:00
11:55 AM,53.6,19.4,26,30.05,10.0,South,3.5,-,N/A,,Clear,190,2012-10-08 17:55:00
12:15 PM,53.6,19.4,26,30.04,10.0,Calm,Calm,-,N/A,,Clear,0,2012-10-08 18:15:00
12:35 PM,55.4,19.4,25,30.03,10.0,Calm,Calm,-,N/A,,Clear,0,2012-10-08 18:35:00
12:55 PM,57.2,19.4,23,30.02,10.0,Calm,Calm,-,N/A,,Clear,0,2012-10-08 18:55:00
1:15 PM,57.2,19.4,23,30.02,10.0,NW,3.5,-,N/A,,Clear,310,2012-10-08 19:15:00
1:35 PM,59.0,19.4,22,30.01,10.0,West,3.5,-,N/A,,Clear,270,2012-10-08 19:35:00
2:15 PM,60.8,19.4,20,29.99,10.0,North,5.8,-,N/A,,Clear,360,2012-10-08 20:15:00
2:35 PM,60.8,19.4,20,29.99,10.0,NNW,4.6,-,N/A,,Clear,340,2012-10-08 20:35:00
2:55 PM,62.6,21.2,20,29.98,10.0,NW,3.5,-,N/A,,Clear,310,2012-10-08 20:55:00
3:15 PM,62.6,21.2,20,29.97,10.0,WNW,3.5,-,N/A,,Clear,300,2012-10-08 21:15:00
3:35 PM,62.6,19.4,19,29.97,10.0,NW,8.1,-,N/A,,Clear,310,2012-10-08 21:35:00
3:55 PM,64.4,17.6,16,29.96,10.0,West,5.8,-,N/A,,Clear,280,2012-10-08 21:55:00
4:15 PM,64.4,19.4,18,29.95,10.0,West,4.6,-,N/A,,Clear,270,2012-10-08 22:15:00
4:35 PM,64.4,15.8,15,29.95,10.0,WNW,5.8,-,N/A,,Clear,300,2012-10-08 22:35:00
4:55 PM,64.4,19.4,18,29.94,10.0,WNW,6.9,-,N/A,,Clear,290,2012-10-08 22:55:00
5:15 PM,66.2,19.4,17,29.94,10.0,WNW,4.6,-,N/A,,Clear,300,2012-10-08 23:15:00
5:35 PM,66.2,19.4,17,29.94,10.0,NNW,4.6,-,N/A,,Clear,340,2012-10-08 23:35:00
5:55 PM,64.4,17.6,16,29.93,10.0,North,4.6,-,N/A,,Clear,350,2012-10-08 23:55:00
6:35 PM,64.4,19.4,18,29.92,10.0,NNW,3.5,-,N/A,,Clear,340,2012-10-09 00:35:00
6:55 PM,64.4,19.4,18,29.92,10.0,Calm,Calm,-,N/A,,Clear,0,2012-10-09 00:55:00
7:15 PM,60.8,23.0,23,29.92,10.0,Calm,Calm,-,N/A,,Clear,0,2012-10-09 01:15:00
8:15 PM,53.6,26.6,35,29.92,10.0,Calm,Calm,-,N/A,,Partly Cloudy,0,2012-10-09 02:15:00
8:35 PM,48.2,28.4,46,29.92,7.0,Calm,Calm,-,N/A,,Scattered Clouds,0,2012-10-09 02:35:00
8:55 PM,48.2,28.4,46,29.92,8.0,East,3.5,-,N/A,,Mostly Cloudy,90,2012-10-09 02:55:00
9:15 PM,50.0,26.6,40,29.93,8.0,NE,3.5,-,N/A,,Mostly Cloudy,40,2012-10-09 03:15:00
9:35 PM,46.4,28.4,50,29.93,9.0,Calm,Calm,-,N/A,,Mostly Cloudy,0,2012-10-09 03:35:00
9:55 PM,44.6,28.4,53,29.94,9.0,Calm,Calm,-,N/A,,Mostly Cloudy,0,2012-10-09 03:55:00
10:15 PM,41.0,28.4,61,29.94,10.0,Calm,Calm,-,N/A,,Mostly Cloudy,0,2012-10-09 04:15:00
10:35 PM,42.8,28.4,57,29.95,10.0,Calm,Calm,-,N/A,,Mostly Cloudy,0,2012-10-09 04:35:00
10:55 PM,41.0,28.4,61,29.96,9.0,Calm,Calm,-,N/A,,Mostly Cloudy,0,2012-10-09 04:55:00
11:15 PM,39.2,28.4,65,29.96,8.0,Calm,Calm,-,N/A,,Mostly Cloudy,0,2012-10-09 05:15:00
11:55 PM,37.4,28.4,70,29.97,10.0,Calm,Calm,-,N/A,,Mostly Cloudy,0,2012-10-09 05:55:00